Change the Weather History Date:

Sunday, March 23, 2014

  Actual Average (KMGW) Record (KMGW)
Temperature  
Mean Temperature 24 °F 44 °F  
Max Temperature 32 °F 55 °F 86 °F (1966)
Min Temperature 14 °F 34 °F 18 °F (1959)
Degree Days  
Heating Degree Days 42 21  
Month to date heating degree days 559  
Since 1 July heating degree days 4448  
Cooling Degree Days 0 0  
Month to date cooling degree days 0  
Year to date cooling degree days 0  
Moisture  
Dew Point 18 °F    
Average Humidity 72    
Maximum Humidity 100    
Minimum Humidity 46    
Precipitation  
Precipitation 0.00 in 0.12 in 1.38 in (2007)
Month to date precipitation 2.66  
Year to date precipitation 8.07  
Sea Level Pressure  
Sea Level Pressure 30.02 in    
Wind  
Wind Speed 7 mph (NW)    
Max Wind Speed 13 mph    
Max Gust Speed 25 mph    
Visibility 9 miles    
Events      
T = Trace of Precipitation, MM = Missing Value Source: NWS Daily Summary

Daily Weather History Graph

Daily Weather History Graph

Search for Another Location

Airport or City:

Trip Planner

Search our weather history database for the weather conditions in past years. The results will help you decide how hot, cold, wet, or windy it might be!

Date:

Astronomy

Mar. 23, 2014 Rise Set
Actual Time 7:16 AM EDT 7:32 PM EDT
Civil Twilight 6:49 AM EDT 7:59 PM EDT
Nautical Twilight 6:17 AM EDT 8:30 PM EDT
Astronomical Twilight 5:45 AM EDT 9:03 PM EDT
Moon 1:46 AM EDT (3/23) 11:56 AM EDT (3/23)
Length of Visible Light 13h 10m
Length of Day
12h 16m
Waning Gibbous, 55% of the Moon is Illuminated
Mar 23
Waning Gibbous
Mar 23
Last Quarter
Mar 30
New
Apr 7
First Quarter
Apr 15
Full

Hourly Weather History & Observations

Time (EDT) Temp. Windchill Dew Point Humidity Pressure Visibility Wind Dir Wind Speed Gust Speed Precip Events Conditions
12:05 AM 32.0 °F 26.4 °F 28.4 °F 87% 30.01 in 7.0 mi NNW 5.8 mph - N/A   Mostly Cloudy
12:25 AM 32.0 °F 25.6 °F 28.4 °F 87% 30.01 in 7.0 mi NNW 6.9 mph - N/A   Overcast
12:45 AM 32.0 °F 26.4 °F 26.6 °F 80% 30.01 in 10.0 mi NNW 5.8 mph - N/A   Overcast
1:05 AM 32.0 °F 27.5 °F 26.6 °F 80% 30.01 in 10.0 mi NW 4.6 mph - N/A   Overcast
1:25 AM 32.0 °F 25.6 °F 26.6 °F 80% 30.02 in 10.0 mi NW 6.9 mph - N/A   Overcast
1:45 AM 30.2 °F 23.4 °F 24.8 °F 80% 30.02 in 10.0 mi NW 6.9 mph - N/A   Overcast
2:05 AM 30.2 °F 24.3 °F 26.6 °F 86% 30.02 in 10.0 mi WNW 5.8 mph - N/A   Overcast
2:25 AM 30.2 °F 23.4 °F 26.6 °F 86% 30.01 in 10.0 mi NNW 6.9 mph - N/A   Overcast
2:45 AM 30.2 °F 23.4 °F 26.6 °F 86% 30.02 in 10.0 mi NW 6.9 mph - N/A   Overcast
3:05 AM 30.2 °F 21.9 °F 24.8 °F 80% 30.02 in 10.0 mi NW 9.2 mph - N/A   Overcast
3:25 AM 30.2 °F 21.9 °F 24.8 °F 80% 30.02 in 10.0 mi NNW 9.2 mph - N/A   Overcast
3:45 AM 30.2 °F 22.6 °F 24.8 °F 80% 30.02 in 10.0 mi NW 8.1 mph - N/A   Overcast
4:05 AM 28.4 °F 23.3 °F 24.8 °F 86% 30.01 in 10.0 mi NW 4.6 mph - N/A   Overcast
4:25 AM 28.4 °F 21.2 °F 24.8 °F 86% 30.01 in 10.0 mi WNW 6.9 mph - N/A   Overcast
4:45 AM 28.4 °F 21.2 °F 23.0 °F 80% 30.00 in 10.0 mi WNW 6.9 mph - N/A   Overcast
5:05 AM 28.4 °F 19.7 °F 23.0 °F 80% 30.01 in 10.0 mi WNW 9.2 mph - N/A   Overcast
5:25 AM 28.4 °F 20.4 °F 21.2 °F 74% 30.00 in 10.0 mi NW 8.1 mph 16.1 mph N/A   Overcast
5:45 AM 28.4 °F 21.2 °F 19.4 °F 69% 29.99 in 10.0 mi NNW 6.9 mph - N/A   Overcast
6:05 AM 28.4 °F 22.2 °F 19.4 °F 69% 30.00 in 10.0 mi NW 5.8 mph - N/A   Overcast
6:25 AM 28.4 °F 21.2 °F 19.4 °F 69% 30.01 in 10.0 mi NW 6.9 mph - N/A   Overcast
6:45 AM 28.4 °F 21.2 °F 19.4 °F 69% 30.01 in 10.0 mi NW 6.9 mph - N/A   Overcast
7:05 AM 28.4 °F 22.2 °F 19.4 °F 69% 30.02 in 10.0 mi NW 5.8 mph - N/A   Overcast
7:25 AM 28.4 °F 20.4 °F 19.4 °F 69% 30.02 in 10.0 mi WNW 8.1 mph - N/A   Mostly Cloudy
7:45 AM 26.6 °F 18.2 °F 21.2 °F 80% 30.02 in 10.0 mi NW 8.1 mph - N/A   Mostly Cloudy
8:05 AM 28.4 °F 23.3 °F 21.2 °F 74% 30.02 in 10.0 mi NW 4.6 mph - N/A   Overcast
8:25 AM 28.4 °F 23.3 °F 21.2 °F 74% 30.02 in 10.0 mi WNW 4.6 mph - N/A   Overcast
8:45 AM 28.4 °F 21.2 °F 21.2 °F 74% 30.02 in 10.0 mi WNW 6.9 mph - N/A   Overcast
9:05 AM 28.4 °F 21.2 °F 21.2 °F 74% 30.02 in 10.0 mi WNW 6.9 mph - N/A   Overcast
9:25 AM 28.4 °F 21.2 °F 23.0 °F 80% 30.03 in 10.0 mi WNW 6.9 mph - N/A   Overcast
9:45 AM 26.6 °F 19.1 °F 23.0 °F 86% 30.03 in 7.0 mi WNW 6.9 mph - N/A   Overcast
10:05 AM 26.6 °F 19.1 °F 26.6 °F 100% 30.03 in 3.0 mi NW 6.9 mph - N/A   Overcast
10:25 AM 26.6 °F 21.2 °F 26.6 °F 100% 30.03 in 2.0 mi WNW 4.6 mph - N/A   Overcast
10:45 AM 26.6 °F 19.1 °F 26.6 °F 100% 30.03 in 2.5 mi NNW 6.9 mph - N/A   Overcast
11:05 AM 26.6 °F 19.1 °F 26.6 °F 100% 30.03 in 2.5 mi NNW 6.9 mph - N/A   Overcast
11:25 AM 26.6 °F 17.5 °F 26.6 °F 100% 30.03 in 5.0 mi NW 9.2 mph - N/A   Overcast
11:45 AM 26.6 °F 20.0 °F 26.6 °F 100% 30.03 in 2.5 mi WNW 5.8 mph - N/A   Overcast
12:05 PM 26.6 °F 20.0 °F 26.6 °F 100% 30.03 in 2.0 mi WNW 5.8 mph - N/A   Overcast
12:25 PM 26.6 °F 19.1 °F 26.6 °F 100% 30.02 in 5.0 mi WNW 6.9 mph - N/A   Overcast
12:45 PM 26.6 °F 20.0 °F 26.6 °F 100% 30.02 in 5.0 mi NW 5.8 mph - N/A   Overcast
1:05 PM 26.6 °F 18.2 °F 26.6 °F 100% 30.02 in 4.0 mi WNW 8.1 mph - N/A   Overcast
1:25 PM 26.6 °F 19.1 °F 23.0 °F 86% 30.02 in 5.0 mi WNW 6.9 mph - N/A   Overcast
1:45 PM 24.8 °F 15.3 °F 21.2 °F 86% 30.02 in 5.0 mi WNW 9.2 mph - N/A   Overcast
2:05 PM 26.6 °F 17.5 °F 21.2 °F 80% 30.02 in 10.0 mi West 9.2 mph - N/A   Overcast
2:25 PM 26.6 °F 16.8 °F 19.4 °F 74% 30.01 in 10.0 mi WNW 10.4 mph - N/A   Overcast
2:45 PM 26.6 °F 17.5 °F 17.6 °F 69% 30.01 in 10.0 mi WNW 9.2 mph 17.3 mph N/A   Overcast
3:05 PM 26.6 °F 16.8 °F 17.6 °F 69% 30.01 in 10.0 mi WNW 10.4 mph 16.1 mph N/A   Overcast
3:25 PM 26.6 °F 16.2 °F 17.6 °F 69% 30.00 in 5.0 mi WNW 11.5 mph - N/A   Haze
3:45 PM 26.6 °F 16.8 °F 15.8 °F 64% 29.99 in 10.0 mi WNW 10.4 mph - N/A   Overcast
4:05 PM 28.4 °F 18.5 °F 14.0 °F 55% 29.99 in 10.0 mi WNW 11.5 mph 18.4 mph N/A   Overcast
4:25 PM 28.4 °F 18.0 °F 10.4 °F 47% 29.99 in 10.0 mi West 12.7 mph 18.4 mph N/A   Overcast
4:45 PM 28.4 °F 20.4 °F 12.2 °F 51% 29.99 in 10.0 mi NW 8.1 mph 19.6 mph N/A   Overcast
5:05 PM 26.6 °F 16.8 °F 12.2 °F 55% 29.99 in 10.0 mi NW 10.4 mph 18.4 mph N/A   Overcast
5:25 PM 26.6 °F 16.8 °F 10.4 °F 51% 30.00 in 10.0 mi WNW 10.4 mph 20.7 mph N/A   Overcast
5:45 PM 26.6 °F 16.2 °F 10.4 °F 51% 30.00 in 10.0 mi NNW 11.5 mph 18.4 mph N/A   Overcast
6:05 PM 24.8 °F 14.0 °F 10.4 °F 54% 30.00 in 10.0 mi NW 11.5 mph 19.6 mph N/A   Mostly Cloudy
6:25 PM 23.0 °F 13.1 °F 10.4 °F 59% 30.01 in 10.0 mi NW 9.2 mph 16.1 mph N/A   Overcast
6:45 PM 23.0 °F 13.1 °F 10.4 °F 59% 30.02 in 10.0 mi WNW 9.2 mph 18.4 mph N/A   Overcast
7:05 PM 23.0 °F 12.4 °F 8.6 °F 54% 30.02 in 10.0 mi NW 10.4 mph 17.3 mph N/A   Overcast
7:25 PM 23.0 °F 13.1 °F 5.0 °F 46% 30.03 in 10.0 mi NW 9.2 mph 17.3 mph N/A   Overcast
7:45 PM 21.2 °F 10.9 °F 5.0 °F 50% 30.04 in 10.0 mi NW 9.2 mph - N/A   Mostly Cloudy
8:05 PM 21.2 °F 12.6 °F 5.0 °F 50% 30.04 in 10.0 mi WNW 6.9 mph 16.1 mph N/A   Mostly Cloudy
8:25 PM 21.2 °F 8.9 °F 3.2 °F 46% 30.04 in 10.0 mi WNW 12.7 mph 20.7 mph N/A   Mostly Cloudy
8:45 PM 21.2 °F 12.6 °F 3.2 °F 46% 30.05 in 10.0 mi WNW 6.9 mph 18.4 mph N/A   Mostly Cloudy
9:05 PM 21.2 °F 11.7 °F 3.2 °F 46% 30.06 in 10.0 mi NW 8.1 mph 19.6 mph N/A   Overcast
9:25 PM 19.4 °F 6.6 °F 3.2 °F 49% 30.07 in 10.0 mi NW 12.7 mph 25.3 mph N/A   Scattered Clouds
9:45 PM 19.4 °F 7.9 °F 3.2 °F 49% 30.08 in 10.0 mi NW 10.4 mph - N/A   Scattered Clouds
10:05 PM 17.6 °F 6.4 °F 3.2 °F 53% 30.08 in 10.0 mi WNW 9.2 mph - N/A   Clear
10:25 PM 17.6 °F 6.4 °F 3.2 °F 53% 30.09 in 10.0 mi WNW 9.2 mph 16.1 mph N/A   Clear
10:45 PM 17.6 °F 7.3 °F 3.2 °F 53% 30.09 in 10.0 mi NW 8.1 mph 17.3 mph N/A   Clear
11:05 PM 15.8 °F 2.7 °F 3.2 °F 58% 30.10 in 10.0 mi WNW 11.5 mph 19.6 mph N/A   Clear
11:25 PM 15.8 °F 6.1 °F 5.0 °F 62% 30.10 in 10.0 mi WNW 6.9 mph - N/A   Clear
11:45 PM 14.0 °F 2.9 °F 5.0 °F 67% 30.11 in 10.0 mi NW 8.1 mph 17.3 mph N/A   Clear